STARLINK-11096, 59719

Orbit data source: Space-Track

STARLINK-11096, 59719 is a payload satellite owned by SpaceX/Seattle (US) in LEO that was launched on Fri, 10 May 2024 UTC via an FALCON 9 launch vehicle from the Air Force Western Test Range (AFWTR). Payload-class satellites include a variety of spacecraft equipped with specific instruments for various scientific and technological missions. These include communications satellites like Starlink; space stations such as the ISS; scientific satellites like the Hubble; Earth observation satellites from companies like Planet Labs, Umbra, and HawkEye 360; GPS; miniature CubeSats for education and research; and military/defense satellites.

Loading next visibility...
Identifier
59719, 2024-088M
Orbit
LEO
Country
Flag of USUS
Related business
Manufacturer
SpaceX/Seattle
Mission
Operational Commercial Communications
Bus & Motor
STARLINK V2MD, Unknown motor
Mass
960 kg wet, ~910 kg dry
Launch date (UTC)
2024-05-10 (2 years ago)
Launch vehicle
FALCON 9
Launch site
Air Force Western Test Range (AFWTR)
Object type
Payload
Rocket body
Debris
Shape & HBR
Box + 2 Pan, 18.1 m
Radar Cross Section
36.964 m², Large (>1 m²)

Expand to show TLE details & history
Last TLE update: 23 hours ago

TLE from 23 hours ago
0 STARLINK-11096
1 59719U 24088M   25346.43944786 -.00001016  00000-0 -35298-5 0  9990
2 59719  53.1595  36.7459 0001124 110.5493 249.5645 15.69692147 92563
Epoch: 2025-12-12T10:32Z
TLE epoch observation values (Epoch: 2025-12-12T10:32:48.295Z)
Latitude
-0.00005°
Longitude
157.16358°
Altitude
360.957 km
Speed
7.694 km/s
True Right ascension
02h 26m 59s
True Declination
0° 00' 00"
Sunlit
Object was in full shadow at epoch
Visualization orbit readout
Latitude
Unknown
Longitude
Unknown
Altitude
Unknown
Speed
Unknown
Apparent Right ascension
Unknown
Apparent Declination
Unknown
Sunlit
N/A
Visualization observer readout
Local Sidereal Time
07:32:40
Azimuth
Unknown
Elevation
Unknown
Doppler factor
Unknown
Orbital elements
Apogee altitude
360.796 km
Perigee altitude
359.281 km
Semi-major axis
6,738.176 km
Eccentricity
0.00011
Inclination
53.1595°
RAAN
36.7459°
Arg. of periapsis
110.5493°
True anomaly
249.55243°
Mean anomaly
249.5645°
Eccentric anomaly
249.55847°
Mean motion
3.92401 °/min
Orbital period
91.74 mins
BSTAR
-0.0000035298
Loading maneuver chart data...
Computing Atmospheric mass density...
Loading historical data...
Loading historical data...
Loading historical data...
Loading historical data...
Loading historical data...
Loading historical data...
Loading historical data...

Documentation

Showing up to 5 results
|